| time (UTC) | temp C | wind direction | speed KPH | gust KPH | rain 1hr cm | rain 24hr cm | rain mn cm | humidity % | barometer mb |
| 20260831080747 | 15 | 220 | 0.0 | 0.0 | 0.00 | 0.00 | 0.00 | 5 | 1013.0 |
| 20260831080247 | 15 | 220 | 0.0 | 0.0 | 0.00 | 0.00 | 0.00 | 5 | 1013.0 |
| 20260831075747 | 15 | 219 | 0.0 | 0.0 | 0.00 | 0.00 | 0.00 | 5 | 1013.0 |
| 20260831075247 | 15 | 220 | 0.0 | 0.0 | 0.00 | 0.00 | 0.00 | 5 | 1013.1 |
| 20260831074247 | 15 | 220 | 0.0 | 0.0 | 0.00 | 0.00 | 0.00 | 5 | 1013.0 |
| 20260831073747 | 15 | 219 | 0.0 | 0.0 | 0.00 | 0.00 | 0.00 | 5 | 1013.0 |
| 20260831073247 | 15 | 219 | 0.0 | 0.0 | 0.00 | 0.00 | 0.00 | 5 | 1013.0 |
| 20260831072747 | 14 | 220 | 0.0 | 0.0 | 0.00 | 0.00 | 0.00 | 5 | 1012.8 |
| 20260831072247 | 14 | 220 | 0.0 | 0.0 | 0.00 | 0.00 | 0.00 | 5 | 1012.9 |
| 20260831071747 | 14 | 219 | 0.0 | 0.0 | 0.00 | 0.00 | 0.00 | 5 | 1012.8 |
| 20260831071248 | 14 | 220 | 0.0 | 0.0 | 0.00 | 0.00 | 0.00 | 6 | 1012.8 |
| 20260831070747 | 13 | 220 | 0.0 | 0.0 | 0.00 | 0.00 | 0.00 | 6 | 1012.8 |
| 20260831065747 | 13 | 219 | 0.0 | 0.0 | 0.00 | 0.00 | 0.00 | 6 | 1012.7 |
| 20260831065247 | 13 | 220 | 0.0 | 0.0 | 0.00 | 0.00 | 0.00 | 7 | 1012.7 |
| 20260831064247 | 13 | 219 | 0.0 | 0.0 | 0.00 | 0.00 | 0.00 | 7 | 1012.7 |
| 20260831063747 | 13 | 220 | 0.0 | 0.0 | 0.00 | 0.00 | 0.00 | 7 | 1012.6 |
| 20260831062747 | 13 | 219 | 0.0 | 0.0 | 0.00 | 0.00 | 0.00 | 8 | 1012.6 |
| 20260831062246 | 13 | 219 | 0.0 | 0.0 | 0.00 | 0.00 | 0.00 | 8 | 1012.8 |
| 20260831061747 | 13 | 220 | 0.0 | 0.0 | 0.00 | 0.00 | 0.00 | 7 | 1012.7 |
| 20260831061246 | 14 | 220 | 0.0 | 0.0 | 0.00 | 0.00 | 0.00 | 7 | 1012.7 |
| 20260831060746 | 14 | 220 | 0.0 | 0.0 | 0.00 | 0.00 | 0.00 | 7 | 1012.7 |
| 20260831055246 | 15 | 220 | 0.0 | 0.0 | 0.00 | 0.00 | 0.00 | 6 | 1012.6 |
| 20260831054746 | 15 | 220 | 0.0 | 0.0 | 0.00 | 0.00 | 0.00 | 6 | 1012.7 |
| 20260831053746 | 15 | 220 | 0.0 | 0.0 | 0.00 | 0.00 | 0.00 | 6 | 1012.8 |
| 20260831053246 | 15 | 220 | 0.0 | 0.0 | 0.00 | 0.00 | 0.00 | 6 | 1012.8 |
| 20260831052246 | 15 | 219 | 0.0 | 0.0 | 0.00 | 0.00 | 0.00 | 6 | 1012.8 |
| 20260831051246 | 15 | 220 | 0.0 | 0.0 | 0.00 | 0.00 | 0.00 | 7 | 1012.8 |
| 20260831050746 | 15 | 219 | 0.0 | 0.0 | 0.00 | 0.00 | 0.00 | 7 | 1012.8 |
| 20260831050246 | 15 | 220 | 0.0 | 0.0 | 0.00 | 0.00 | 0.00 | 7 | 1012.8 |
| 20260831045745 | 15 | 220 | 0.0 | 0.0 | 0.00 | 0.00 | 0.00 | 7 | 1012.7 |
| 20260831045245 | 16 | 220 | 0.0 | 0.0 | 0.00 | 0.00 | 0.00 | 11 | 1012.7 |
| 20260831044745 | 16 | 220 | 0.0 | 0.0 | 0.00 | 0.00 | 0.00 | 11 | 1012.7 |
| 20260831044245 | 16 | 220 | 0.0 | 0.0 | 0.00 | 0.00 | 0.00 | 11 | 1012.7 |
| 20260831043745 | 16 | 220 | 0.0 | 0.0 | 0.00 | 0.00 | 0.00 | 11 | 1012.6 |
| 20260831043245 | 16 | 220 | 0.0 | 0.0 | 0.00 | 0.00 | 0.00 | 11 | 1012.5 |
| 20260831042745 | 16 | 220 | 0.0 | 0.0 | 0.00 | 0.00 | 0.00 | 11 | 1012.5 |
| 20260831042246 | 16 | 220 | 0.0 | 0.0 | 0.00 | 0.00 | 0.00 | 12 | 1012.4 |
| 20260831041745 | 16 | 220 | 0.0 | 0.0 | 0.00 | 0.00 | 0.00 | 13 | 1012.4 |
| 20260831035745 | 16 | 220 | 0.0 | 0.0 | 0.00 | 0.00 | 0.00 | 18 | 1012.2 |
| 20260831035245 | 16 | 220 | 0.0 | 0.0 | 0.00 | 0.00 | 0.00 | 19 | 1012.2 |
| 20260831034745 | 16 | 220 | 0.0 | 0.0 | 0.00 | 0.00 | 0.00 | 20 | 1012.1 |
| 20260831034245 | 17 | 220 | 0.0 | 0.0 | 0.00 | 0.00 | 0.00 | 21 | 1012.0 |
| 20260831033745 | 17 | 219 | 0.0 | 0.0 | 0.00 | 0.00 | 0.00 | 23 | 1011.8 |
| 20260831033245 | 17 | 219 | 0.0 | 0.0 | 0.00 | 0.00 | 0.00 | 24 | 1011.9 |
| 20260831032745 | 17 | 220 | 0.0 | 0.0 | 0.00 | 0.00 | 0.00 | 25 | 1011.8 |
| 20260831032245 | 17 | 220 | 0.0 | 0.0 | 0.00 | 0.00 | 0.00 | 26 | 1011.8 |
| 20260831031745 | 17 | 219 | 0.0 | 0.0 | 0.00 | 0.00 | 0.00 | 27 | 1011.7 |
| 20260831031245 | 17 | 220 | 0.0 | 0.0 | 0.00 | 0.00 | 0.00 | 28 | 1011.7 |
| 20260831030745 | 17 | 220 | 0.0 | 0.0 | 0.00 | 0.00 | 0.00 | 28 | 1011.7 |
| 20260831030244 | 18 | 219 | 0.0 | 0.0 | 0.00 | 0.00 | 0.00 | 29 | 1011.7 |
| 20260831025745 | 18 | 219 | 0.0 | 0.0 | 0.00 | 0.00 | 0.00 | 30 | 1011.7 |
| 20260831025245 | 18 | 220 | 0.0 | 0.0 | 0.00 | 0.00 | 0.00 | 30 | 1011.6 |
| 20260831024745 | 18 | 220 | 0.0 | 0.0 | 0.00 | 0.00 | 0.00 | 31 | 1011.6 |
| 20260831024244 | 18 | 219 | 0.0 | 0.0 | 0.00 | 0.00 | 0.00 | 32 | 1011.6 |
| 20260831023744 | 18 | 220 | 0.0 | 0.0 | 0.00 | 0.00 | 0.00 | 32 | 1011.4 |
| 20260831023244 | 19 | 220 | 0.0 | 0.0 | 0.00 | 0.00 | 0.00 | 33 | 1011.4 |
| 20260831022244 | 19 | 219 | 0.0 | 0.0 | 0.00 | 0.00 | 0.00 | 34 | 1011.4 |
| 20260831021244 | 20 | 220 | 0.0 | 0.0 | 0.00 | 0.00 | 0.00 | 35 | 1011.4 |
| 20260831020744 | 20 | 220 | 0.0 | 0.0 | 0.00 | 0.00 | 0.00 | 36 | 1011.4 |
| 20260831020244 | 20 | 220 | 0.0 | 0.0 | 0.00 | 0.00 | 0.00 | 37 | 1011.3 |
| 20260831015744 | 20 | 220 | 0.0 | 0.0 | 0.00 | 0.00 | 0.00 | 38 | 1011.4 |
| 20260831015244 | 20 | 220 | 0.0 | 0.0 | 0.00 | 0.00 | 0.00 | 39 | 1011.4 |
| 20260831014744 | 20 | 220 | 0.0 | 0.0 | 0.00 | 0.00 | 0.00 | 40 | 1011.4 |
| 20260831014244 | 21 | 219 | 0.0 | 0.0 | 0.00 | 0.00 | 0.00 | 40 | 1011.4 |
| 20260831013744 | 21 | 220 | 0.0 | 0.0 | 0.00 | 0.00 | 0.00 | 41 | 1011.5 |
| 20260831013243 | 21 | 220 | 0.0 | 0.0 | 0.00 | 0.00 | 0.00 | 42 | 1011.4 |
| 20260831012743 | 21 | 219 | 0.0 | 0.0 | 0.00 | 0.00 | 0.00 | 42 | 1011.4 |
| 20260831012243 | 22 | 220 | 0.0 | 0.0 | 0.00 | 0.00 | 0.00 | 42 | 1011.4 |
| 20260831011243 | 22 | 219 | 0.0 | 0.0 | 0.00 | 0.00 | 0.00 | 43 | 1011.2 |
| 20260831010743 | 22 | 219 | 0.0 | 0.0 | 0.00 | 0.00 | 0.00 | 43 | 1011.2 |
| 20260831010244 | 22 | 220 | 0.0 | 0.0 | 0.00 | 0.00 | 0.00 | 44 | 1011.2 |
| 20260831005744 | 23 | 220 | 0.0 | 0.0 | 0.00 | 0.00 | 0.00 | 43 | 1011.2 |
| 20260831005243 | 23 | 220 | 0.0 | 0.0 | 0.00 | 0.00 | 0.00 | 43 | 1011.1 |
| 20260831004743 | 23 | 220 | 0.0 | 0.0 | 0.00 | 0.00 | 0.00 | 43 | 1011.0 |
| 20260831004244 | 23 | 219 | 0.0 | 0.0 | 0.00 | 0.00 | 0.00 | 43 | 1011.0 |
| 20260831003743 | 24 | 220 | 0.0 | 0.0 | 0.00 | 0.00 | 0.00 | 43 | 1011.2 |
| 20260831002743 | 25 | 220 | 0.0 | 0.0 | 0.00 | 0.00 | 0.00 | 42 | 1011.1 |
| 20260831002243 | 25 | 220 | 0.0 | 0.0 | 0.00 | 0.00 | 0.00 | 41 | 1011.1 |
| 20260831001743 | 25 | 219 | 0.0 | 0.0 | 0.00 | 0.00 | 0.00 | 41 | 1011.2 |
| 20260831001243 | 25 | 219 | 0.0 | 0.0 | 0.00 | 0.00 | 0.00 | 41 | 1011.1 |
| 20260831000743 | 26 | 219 | 0.0 | 0.0 | 0.00 | 0.00 | 0.00 | 41 | 1011.1 |
| 20260830235743 | 26 | 220 | 0.0 | 0.0 | 0.00 | 0.00 | 0.00 | 40 | 1011.1 |
| 20260830235243 | 26 | 219 | 0.0 | 0.0 | 0.00 | 0.00 | 0.00 | 40 | 1011.2 |
| 20260830234743 | 26 | 220 | 0.0 | 0.0 | 0.00 | 0.00 | 0.00 | 40 | 1011.2 |
| 20260830234243 | 26 | 220 | 0.0 | 0.0 | 0.00 | 0.00 | 0.00 | 39 | 1011.2 |
| 20260830233243 | 27 | 211 | 0.0 | 0.0 | 0.00 | 0.00 | 0.00 | 38 | 1011.2 |
| 20260830232743 | 27 | 195 | 0.0 | 0.0 | 0.00 | 0.00 | 0.00 | 38 | 1011.3 |
| 20260830232243 | 27 | 195 | 0.0 | 0.0 | 0.00 | 0.00 | 0.00 | 38 | 1011.3 |
| 20260830231742 | 27 | 195 | 0.0 | 0.0 | 0.00 | 0.00 | 0.00 | 38 | 1011.4 |
| 20260830230743 | 27 | 195 | 0.0 | 0.0 | 0.00 | 0.00 | 0.00 | 37 | 1011.3 |
| 20260830230242 | 27 | 195 | 0.0 | 0.0 | 0.00 | 0.00 | 0.00 | 38 | 1011.4 |
| 20260830225242 | 27 | 195 | 0.0 | 0.0 | 0.00 | 0.00 | 0.00 | 38 | 1011.4 |
| 20260830224742 | 27 | 195 | 0.0 | 0.0 | 0.00 | 0.00 | 0.00 | 38 | 1011.5 |
| 20260830224242 | 27 | 195 | 0.0 | 0.0 | 0.00 | 0.00 | 0.00 | 38 | 1011.5 |
| 20260830222742 | 27 | 195 | 0.0 | 0.0 | 0.00 | 0.00 | 0.00 | 37 | 1011.7 |
| 20260830222242 | 28 | 195 | 0.0 | 0.0 | 0.00 | 0.00 | 0.00 | 37 | 1011.7 |
| 20260830221742 | 28 | 195 | 0.0 | 0.0 | 0.00 | 0.00 | 0.00 | 37 | 1011.7 |
| 20260830221241 | 28 | 195 | 0.0 | 0.0 | 0.00 | 0.00 | 0.00 | 37 | 1011.8 |
| 20260830220742 | 28 | 195 | 0.0 | 0.0 | 0.00 | 0.00 | 0.00 | 37 | 1011.8 |
| 20260830220241 | 28 | 195 | 0.0 | 0.0 | 0.00 | 0.00 | 0.00 | 36 | 1011.8 |
| 20260830215741 | 28 | 194 | 0.0 | 0.0 | 0.00 | 0.00 | 0.00 | 36 | 1011.9 |
| 20260830215241 | 28 | 194 | 0.0 | 0.0 | 0.00 | 0.00 | 0.00 | 36 | 1012.0 |
| 20260830214742 | 28 | 194 | 0.0 | 0.0 | 0.00 | 0.00 | 0.00 | 36 | 1012.0 |
| 20260830214241 | 28 | 194 | 0.0 | 0.0 | 0.00 | 0.00 | 0.00 | 36 | 1012.0 |
| 20260830213742 | 28 | 194 | 0.0 | 0.0 | 0.00 | 0.00 | 0.00 | 35 | 1012.1 |
| 20260830213241 | 28 | 194 | 0.0 | 0.0 | 0.00 | 0.00 | 0.00 | 36 | 1012.2 |
| 20260830212241 | 28 | 194 | 0.0 | 0.0 | 0.00 | 0.00 | 0.00 | 35 | 1012.3 |
| 20260830211741 | 28 | 194 | 0.0 | 0.0 | 0.00 | 0.00 | 0.00 | 35 | 1012.4 |
| 20260830210741 | 28 | 194 | 0.0 | 0.0 | 0.00 | 0.00 | 0.00 | 35 | 1012.5 |
| 20260830205241 | 28 | 193 | 0.0 | 0.0 | 0.00 | 0.00 | 0.00 | 34 | 1012.6 |
| 20260830204741 | 28 | 192 | 0.0 | 0.0 | 0.00 | 0.00 | 0.00 | 34 | 1012.5 |
| 20260830203740 | 28 | 193 | 0.0 | 0.0 | 0.00 | 0.00 | 0.00 | 34 | 1012.5 |
| 20260830203241 | 28 | 192 | 0.0 | 0.0 | 0.00 | 0.00 | 0.00 | 34 | 1012.5 |
| 20260830202740 | 28 | 192 | 0.0 | 0.0 | 0.00 | 0.00 | 0.00 | 33 | 1012.6 |
| 20260830201240 | 28 | 193 | 0.0 | 0.0 | 0.00 | 0.00 | 0.00 | 33 | 1012.6 |
| 20260830195740 | 28 | 193 | 0.0 | 0.0 | 0.00 | 0.00 | 0.00 | 31 | 1012.5 |
| 20260830195240 | 28 | 192 | 0.0 | 0.0 | 0.00 | 0.00 | 0.00 | 31 | 1012.8 |
| 20260830194240 | 27 | 193 | 0.0 | 0.0 | 0.00 | 0.00 | 0.00 | 30 | 1012.8 |
| 20260830193740 | 27 | 193 | 0.0 | 0.0 | 0.00 | 0.00 | 0.00 | 29 | 1012.9 |
| 20260830193240 | 27 | 192 | 0.0 | 0.0 | 0.00 | 0.00 | 0.00 | 28 | 1012.8 |
| 20260830192740 | 27 | 192 | 0.0 | 0.0 | 0.00 | 0.00 | 0.00 | 28 | 1012.8 |
| 20260830192240 | 27 | 193 | 0.0 | 0.0 | 0.00 | 0.00 | 0.00 | 27 | 1012.8 |
| 20260830191240 | 26 | 193 | 0.0 | 0.0 | 0.00 | 0.00 | 0.00 | 25 | 1012.9 |
| 20260830190740 | 26 | 193 | 0.0 | 0.0 | 0.00 | 0.00 | 0.00 | 24 | 1012.9 |
| 20260830190239 | 26 | 193 | 0.0 | 0.0 | 0.00 | 0.00 | 0.00 | 23 | 1012.9 |
| 20260830185739 | 26 | 192 | 0.0 | 0.0 | 0.00 | 0.00 | 0.00 | 22 | 1012.9 |
| 20260830185239 | 25 | 192 | 0.0 | 0.0 | 0.00 | 0.00 | 0.00 | 21 | 1013.0 |
| 20260830184739 | 25 | 193 | 0.0 | 0.0 | 0.00 | 0.00 | 0.00 | 20 | 1013.0 |
| 20260830184239 | 25 | 193 | 0.0 | 0.0 | 0.00 | 0.00 | 0.00 | 19 | 1013.1 |
| 20260830182739 | 23 | 194 | 0.0 | 0.0 | 0.00 | 0.00 | 0.00 | 17 | 1013.3 |
| 20260830181739 | 22 | 194 | 0.0 | 0.0 | 0.00 | 0.00 | 0.00 | 15 | 1013.2 |
| 20260830181239 | 22 | 194 | 0.0 | 0.0 | 0.00 | 0.00 | 0.00 | 14 | 1013.1 |
| 20260830180309 | 21 | 194 | 0.0 | 0.0 | 0.00 | 0.00 | 0.00 | 13 | 1013.2 |
| 20260830175739 | 21 | 194 | 0.0 | 0.0 | 0.00 | 0.00 | 0.00 | 12 | 1013.3 |
| 20260830175239 | 20 | 194 | 0.0 | 0.0 | 0.00 | 0.00 | 0.00 | 11 | 1013.2 |
| 20260830174738 | 20 | 194 | 0.0 | 0.0 | 0.00 | 0.00 | 0.00 | 11 | 1013.1 |
| 20260830174238 | 20 | 194 | 0.0 | 0.0 | 0.00 | 0.00 | 0.00 | 9 | 1013.1 |
| 20260830173739 | 20 | 194 | 0.0 | 0.0 | 0.00 | 0.00 | 0.00 | 8 | 1013.1 |
| 20260830173239 | 20 | 194 | 0.0 | 0.0 | 0.00 | 0.00 | 0.00 | 7 | 1013.1 |
| 20260830172739 | 20 | 194 | 0.0 | 0.0 | 0.00 | 0.00 | 0.00 | 5 | 1013.1 |
| 20260830172239 | 19 | 194 | 0.0 | 0.0 | 0.00 | 0.00 | 0.00 | 4 | 1013.0 |
| 20260830171738 | 18 | 194 | 0.0 | 0.0 | 0.00 | 0.00 | 0.00 | 4 | 1013.0 |
| 20260830170739 | 17 | 194 | 0.0 | 0.0 | 0.00 | 0.00 | 0.00 | 4 | 1013.0 |
| 20260830170309 | 17 | 194 | 0.0 | 0.0 | 0.00 | 0.00 | 0.00 | 5 | 1013.1 |
| 20260830165739 | 17 | 194 | 0.0 | 0.0 | 0.00 | 0.00 | 0.00 | 7 | 1013.1 |
| 20260830164738 | 16 | 194 | 0.0 | 0.0 | 0.00 | 0.00 | 0.00 | 9 | 1013.1 |
| 20260830163738 | 15 | 194 | 0.0 | 0.0 | 0.00 | 0.00 | 0.00 | 10 | 1013.1 |
| 20260830163238 | 15 | 194 | 0.0 | 0.0 | 0.00 | 0.00 | 0.00 | 11 | 1013.3 |
| 20260830162738 | 14 | 194 | 0.0 | 0.0 | 0.00 | 0.00 | 0.00 | 11 | 1013.2 |
| 20260830161738 | 14 | 194 | 0.0 | 0.0 | 0.00 | 0.00 | 0.00 | 12 | 1013.0 |
| 20260830161308 | 13 | 194 | 0.0 | 0.0 | 0.00 | 0.00 | 0.00 | 12 | 1013.0 |
| 20260830160808 | 13 | 194 | 0.0 | 0.0 | 0.00 | 0.00 | 0.00 | 12 | 1013.0 |
| 20260830160307 | 13 | 194 | 0.0 | 0.0 | 0.00 | 0.00 | 0.00 | 12 | 1013.0 |
| 20260830155808 | 13 | 194 | 0.0 | 0.0 | 0.00 | 0.00 | 0.00 | 12 | 1013.1 |
| 20260830155308 | 13 | 194 | 0.0 | 0.0 | 0.00 | 0.00 | 0.00 | 12 | 1013.0 |
| 20260830154307 | 13 | 194 | 0.0 | 0.0 | 0.00 | 0.00 | 0.00 | 12 | 1013.1 |
| 20260830153308 | 13 | 194 | 0.0 | 0.0 | 0.00 | 0.00 | 0.00 | 12 | 1013.0 |
| 20260830152807 | 13 | 194 | 0.0 | 0.0 | 0.00 | 0.00 | 0.00 | 12 | 1012.9 |
| 20260830152307 | 13 | 194 | 0.0 | 0.0 | 0.00 | 0.00 | 0.00 | 12 | 1012.9 |
| 20260830151808 | 13 | 194 | 0.0 | 0.0 | 0.00 | 0.00 | 0.00 | 11 | 1012.9 |
| 20260830151308 | 13 | 194 | 0.0 | 0.0 | 0.00 | 0.00 | 0.00 | 11 | 1012.9 |
| 20260830150808 | 13 | 194 | 0.0 | 0.0 | 0.00 | 0.00 | 0.00 | 11 | 1012.9 |
| 20260830150308 | 13 | 194 | 0.0 | 0.0 | 0.00 | 0.00 | 0.00 | 11 | 1012.9 |
| 20260830145807 | 13 | 194 | 0.0 | 0.0 | 0.00 | 0.00 | 0.00 | 11 | 1013.1 |
| 20260830145308 | 13 | 194 | 0.0 | 0.0 | 0.00 | 0.00 | 0.00 | 11 | 1013.0 |
| 20260830144807 | 13 | 194 | 0.0 | 0.0 | 0.00 | 0.00 | 0.00 | 11 | 1013.0 |
| 20260830143307 | 13 | 194 | 0.0 | 0.0 | 0.00 | 0.00 | 0.00 | 11 | 1013.1 |
| 20260830142807 | 13 | 194 | 0.0 | 0.0 | 0.00 | 0.00 | 0.00 | 11 | 1013.1 |
| 20260830142307 | 13 | 194 | 0.0 | 0.0 | 0.00 | 0.00 | 0.00 | 11 | 1013.2 |
| 20260830141807 | 13 | 194 | 0.0 | 0.0 | 0.00 | 0.00 | 0.00 | 11 | 1013.0 |
| 20260830141307 | 13 | 194 | 0.0 | 0.0 | 0.00 | 0.00 | 0.00 | 11 | 1012.9 |
| 20260830140806 | 13 | 194 | 0.0 | 0.0 | 0.00 | 0.00 | 0.00 | 11 | 1012.9 |
| 20260830140306 | 13 | 194 | 0.0 | 0.0 | 0.00 | 0.00 | 0.00 | 11 | 1012.8 |
| 20260830135807 | 13 | 194 | 0.0 | 0.0 | 0.00 | 0.00 | 0.00 | 11 | 1012.8 |
| 20260830135307 | 13 | 194 | 0.0 | 0.0 | 0.00 | 0.00 | 0.00 | 11 | 1012.7 |
| 20260830134307 | 13 | 194 | 0.0 | 0.0 | 0.00 | 0.00 | 0.00 | 11 | 1012.4 |
| 20260830133806 | 13 | 194 | 0.0 | 0.0 | 0.00 | 0.00 | 0.00 | 11 | 1012.4 |
| 20260830133306 | 13 | 194 | 0.0 | 0.0 | 0.00 | 0.00 | 0.00 | 11 | 1012.4 |
| 20260830132806 | 13 | 194 | 0.0 | 0.0 | 0.00 | 0.00 | 0.00 | 11 | 1012.3 |
| 20260830131806 | 13 | 194 | 0.0 | 0.0 | 0.00 | 0.00 | 0.00 | 11 | 1012.3 |
| 20260830130807 | 13 | 194 | 0.0 | 0.0 | 0.00 | 0.00 | 0.00 | 11 | 1012.2 |
| 20260830125806 | 13 | 194 | 0.0 | 0.0 | 0.00 | 0.00 | 0.00 | 10 | 1012.2 |
| 20260830125306 | 13 | 194 | 0.0 | 0.0 | 0.00 | 0.00 | 0.00 | 11 | 1012.1 |
| 20260830124805 | 13 | 194 | 0.0 | 0.0 | 0.00 | 0.00 | 0.00 | 11 | 1012.0 |
| 20260830124305 | 13 | 194 | 0.0 | 0.0 | 0.00 | 0.00 | 0.00 | 11 | 1012.0 |
| 20260830123806 | 13 | 194 | 0.0 | 0.0 | 0.00 | 0.00 | 0.00 | 11 | 1012.0 |
| 20260830123305 | 13 | 194 | 0.0 | 0.0 | 0.00 | 0.00 | 0.00 | 11 | 1012.0 |
| 20260830122805 | 13 | 194 | 0.0 | 0.0 | 0.00 | 0.00 | 0.00 | 11 | 1012.1 |
| 20260830122306 | 13 | 194 | 0.0 | 0.0 | 0.00 | 0.00 | 0.00 | 11 | 1012.0 |
| 20260830121805 | 13 | 194 | 0.0 | 0.0 | 0.00 | 0.00 | 0.00 | 11 | 1012.0 |
| 20260830120805 | 13 | 194 | 0.0 | 0.0 | 0.00 | 0.00 | 0.00 | 10 | 1012.0 |
| 20260830120305 | 13 | 194 | 0.0 | 0.0 | 0.00 | 0.00 | 0.00 | 10 | 1012.0 |
| 20260830115805 | 13 | 194 | 0.0 | 0.0 | 0.00 | 0.00 | 0.00 | 10 | 1012.2 |
| 20260830114804 | 13 | 194 | 0.0 | 0.0 | 0.00 | 0.00 | 0.00 | 10 | 1012.3 |
| 20260830114305 | 13 | 194 | 0.0 | 0.0 | 0.00 | 0.00 | 0.00 | 10 | 1012.3 |
| 20260830113805 | 13 | 194 | 0.0 | 0.0 | 0.00 | 0.00 | 0.00 | 10 | 1012.3 |
| 20260830113304 | 13 | 194 | 0.0 | 0.0 | 0.00 | 0.00 | 0.00 | 10 | 1012.2 |
| 20260830112306 | 13 | 194 | 0.0 | 0.0 | 0.00 | 0.00 | 0.00 | 10 | 1012.2 |
| 20260830111805 | 13 | 194 | 0.0 | 0.0 | 0.00 | 0.00 | 0.00 | 10 | 1012.2 |
| 20260830111304 | 13 | 194 | 0.0 | 0.0 | 0.00 | 0.00 | 0.00 | 10 | 1012.2 |
| 20260830110804 | 13 | 194 | 0.0 | 0.0 | 0.00 | 0.00 | 0.00 | 9 | 1012.1 |
| 20260830110304 | 13 | 194 | 0.0 | 0.0 | 0.00 | 0.00 | 0.00 | 9 | 1012.3 |
| 20260830105305 | 13 | 194 | 0.0 | 0.0 | 0.00 | 0.00 | 0.00 | 9 | 1012.3 |
| 20260830104804 | 13 | 194 | 0.0 | 0.0 | 0.00 | 0.00 | 0.00 | 9 | 1012.2 |
| 20260830104304 | 13 | 194 | 0.0 | 0.0 | 0.00 | 0.00 | 0.00 | 9 | 1012.2 |
| 20260830103805 | 13 | 194 | 0.0 | 0.0 | 0.00 | 0.00 | 0.00 | 9 | 1012.2 |
| 20260830103304 | 13 | 194 | 0.0 | 0.0 | 0.00 | 0.00 | 0.00 | 9 | 1012.1 |
| 20260830102804 | 13 | 194 | 0.0 | 0.0 | 0.00 | 0.00 | 0.00 | 9 | 1012.1 |
| 20260830102306 | 13 | 194 | 0.0 | 0.0 | 0.00 | 0.00 | 0.00 | 9 | 1012.2 |
| 20260830101804 | 13 | 194 | 0.0 | 0.0 | 0.00 | 0.00 | 0.00 | 9 | 1012.1 |
| 20260830101304 | 13 | 194 | 0.0 | 0.0 | 0.00 | 0.00 | 0.00 | 9 | 1012.2 |
| 20260830100804 | 13 | 194 | 0.0 | 0.0 | 0.00 | 0.00 | 0.00 | 9 | 1012.1 |
| 20260830095803 | 14 | 194 | 0.0 | 0.0 | 0.00 | 0.00 | 0.00 | 9 | 1012.3 |
| 20260830095306 | 14 | 194 | 0.0 | 0.0 | 0.00 | 0.00 | 0.00 | 9 | 1012.2 |
| 20260830094804 | 14 | 194 | 0.0 | 0.0 | 0.00 | 0.00 | 0.00 | 9 | 1012.2 |
| 20260830094303 | 14 | 194 | 0.0 | 0.0 | 0.00 | 0.00 | 0.00 | 8 | 1012.1 |
| 20260830093803 | 14 | 194 | 0.0 | 0.0 | 0.00 | 0.00 | 0.00 | 8 | 1012.2 |
| 20260830093303 | 14 | 194 | 0.0 | 0.0 | 0.00 | 0.00 | 0.00 | 8 | 1012.1 |
| 20260830092803 | 14 | 194 | 0.0 | 0.0 | 0.00 | 0.00 | 0.00 | 8 | 1012.2 |
| 20260830092305 | 14 | 194 | 0.0 | 0.0 | 0.00 | 0.00 | 0.00 | 8 | 1012.2 |
| 20260830091803 | 14 | 194 | 0.0 | 0.0 | 0.00 | 0.00 | 0.00 | 8 | 1012.3 |
| 20260830091303 | 14 | 194 | 0.0 | 0.0 | 0.00 | 0.00 | 0.00 | 8 | 1012.3 |
| 20260830090803 | 14 | 194 | 0.0 | 0.0 | 0.00 | 0.00 | 0.00 | 7 | 1012.2 |
| 20260830090303 | 14 | 194 | 0.0 | 0.0 | 0.00 | 0.00 | 0.00 | 7 | 1012.2 |
| 20260830085803 | 14 | 194 | 0.0 | 0.0 | 0.00 | 0.00 | 0.00 | 7 | 1012.3 |
| 20260830085306 | 14 | 194 | 0.0 | 0.0 | 0.00 | 0.00 | 0.00 | 7 | 1012.4 |
| 20260830084803 | 14 | 194 | 0.0 | 0.0 | 0.00 | 0.00 | 0.00 | 7 | 1012.4 |
| 20260830084303 | 13 | 194 | 0.0 | 0.0 | 0.00 | 0.00 | 0.00 | 7 | 1012.4 |
| 20260830083803 | 13 | 194 | 0.0 | 0.0 | 0.00 | 0.00 | 0.00 | 6 | 1012.5 |
| 20260830083303 | 13 | 194 | 0.0 | 0.0 | 0.00 | 0.00 | 0.00 | 6 | 1012.4 |
| 20260830082802 | 13 | 194 | 0.0 | 0.0 | 0.00 | 0.00 | 0.00 | 7 | 1012.4 |
| 20260830082306 | 13 | 194 | 0.0 | 0.0 | 0.00 | 0.00 | 0.00 | 7 | 1012.4 |
| 20260830081802 | 14 | 194 | 0.0 | 0.0 | 0.00 | 0.00 | 0.00 | 6 | 1012.5 |
| 20260830081302 | 14 | 194 | 0.0 | 0.0 | 0.00 | 0.00 | 0.00 | 6 | 1012.6 |